owner,sensor,date,latitude,longitude,sea_surface_height_above_sea_level,qcFlag 
COMPS,ioos:station:USF.COMPS:ANC:1,2008-04-01T00:00:00Z,28.1930,-82.7890,0.133,1111122 
COMPS,ioos:station:USF.COMPS:ANC:1,2008-04-01T00:06:00Z,28.1930,-82.7890,0.133,1111122 
COMPS,ioos:station:USF.COMPS:ANC:1,2008-04-01T00:12:00Z,28.1930,-82.7890,0.134,1111122 
COMPS,ioos:station:USF.COMPS:ANC:1,2008-04-01T00:18:00Z,28.1930,-82.7890,0.144,1111122 
COMPS,ioos:station:USF.COMPS:ANC:1,2008-04-01T00:24:00Z,28.1930,-82.7890,0.139,1111122 
COMPS,ioos:station:USF.COMPS:ANC:1,2008-04-01T00:30:00Z,28.1930,-82.7890,0.137,1111122 
COMPS,ioos:station:USF.COMPS:ANC:1,2008-04-01T00:36:00Z,28.1930,-82.7890,0.136,1111122 
COMPS,ioos:station:USF.COMPS:ANC:1,2008-04-01T00:42:00Z,28.1930,-82.7890,0.134,1111122 
COMPS,ioos:station:USF.COMPS:ANC:1,2008-04-01T00:48:00Z,28.1930,-82.7890,0.123,1111122 
COMPS,ioos:station:USF.COMPS:ANC:1,2008-04-01T00:54:00Z,28.1930,-82.7890,0.122,1111122 
COMPS,ioos:station:USF.COMPS:ANC:1,2008-04-01T01:00:00Z,28.1930,-82.7890,0.116,1111122 
COMPS,ioos:station:USF.COMPS:ANC:1,2008-04-01T01:06:00Z,28.1930,-82.7890,0.11,1111122 
COMPS,ioos:station:USF.COMPS:ANC:1,2008-04-01T01:12:00Z,28.1930,-82.7890,0.113,1111122 
COMPS,ioos:station:USF.COMPS:ANC:1,2008-04-01T01:18:00Z,28.1930,-82.7890,0.111,1111122 
COMPS,ioos:station:USF.COMPS:ANC:1,2008-04-01T01:24:00Z,28.1930,-82.7890,0.105,1111122 
COMPS,ioos:station:USF.COMPS:ANC:1,2008-04-01T01:30:00Z,28.1930,-82.7890,0.101,1111122 
COMPS,ioos:station:USF.COMPS:ANC:1,2008-04-01T01:36:00Z,28.1930,-82.7890,0.099,1111122 
COMPS,ioos:station:USF.COMPS:ANC:1,2008-04-01T01:42:00Z,28.1930,-82.7890,0.093,1111122 
COMPS,ioos:station:USF.COMPS:ANC:1,2008-04-01T01:48:00Z,28.1930,-82.7890,0.092,1111122 
COMPS,ioos:station:USF.COMPS:ANC:1,2008-04-01T01:54:00Z,28.1930,-82.7890,0.089,1111122 
COMPS,ioos:station:USF.COMPS:ANC:1,2008-04-01T02:00:00Z,28.1930,-82.7890,0.076,1111122 
COMPS,ioos:station:USF.COMPS:ANC:1,2008-04-01T02:06:00Z,28.1930,-82.7890,0.066,1111122 
COMPS,ioos:station:USF.COMPS:ANC:1,2008-04-01T02:12:00Z,28.1930,-82.7890,0.065,1111122 
COMPS,ioos:station:USF.COMPS:ANC:1,2008-04-01T02:18:00Z,28.1930,-82.7890,0.054,1111122 
COMPS,ioos:station:USF.COMPS:ANC:1,2008-04-01T02:24:00Z,28.1930,-82.7890,0.035,1111122 
COMPS,ioos:station:USF.COMPS:ANC:1,2008-04-01T02:30:00Z,28.1930,-82.7890,0.02,1111122 
COMPS,ioos:station:USF.COMPS:ANC:1,2008-04-01T02:36:00Z,28.1930,-82.7890,0.011,1111122 
COMPS,ioos:station:USF.COMPS:ANC:1,2008-04-01T02:42:00Z,28.1930,-82.7890,0.001,1111122 
COMPS,ioos:station:USF.COMPS:ANC:1,2008-04-01T02:48:00Z,28.1930,-82.7890,-0.008,1111122 
COMPS,ioos:station:USF.COMPS:ANC:1,2008-04-01T02:54:00Z,28.1930,-82.7890,-0.027,1111122 
COMPS,ioos:station:USF.COMPS:ANC:1,2008-04-01T03:00:00Z,28.1930,-82.7890,-0.047,1111122 
COMPS,ioos:station:USF.COMPS:ANC:1,2008-04-01T03:06:00Z,28.1930,-82.7890,-0.067,1111122 
COMPS,ioos:station:USF.COMPS:ANC:1,2008-04-01T03:12:00Z,28.1930,-82.7890,-0.079,1111122 
COMPS,ioos:station:USF.COMPS:ANC:1,2008-04-01T03:18:00Z,28.1930,-82.7890,-0.091,1111122 
COMPS,ioos:station:USF.COMPS:ANC:1,2008-04-01T03:24:00Z,28.1930,-82.7890,-0.111,1111122 
COMPS,ioos:station:USF.COMPS:ANC:1,2008-04-01T03:30:00Z,28.1930,-82.7890,-0.125,1111122 
COMPS,ioos:station:USF.COMPS:ANC:1,2008-04-01T03:36:00Z,28.1930,-82.7890,-0.144,1111122 
COMPS,ioos:station:USF.COMPS:ANC:1,2008-04-01T03:42:00Z,28.1930,-82.7890,-0.164,1111122 
COMPS,ioos:station:USF.COMPS:ANC:1,2008-04-01T03:48:00Z,28.1930,-82.7890,-0.18,1111122 
COMPS,ioos:station:USF.COMPS:ANC:1,2008-04-01T03:54:00Z,28.1930,-82.7890,-0.2,1111122 
COMPS,ioos:station:USF.COMPS:ANC:1,2008-04-01T04:00:00Z,28.1930,-82.7890,-0.217,1111122 
COMPS,ioos:station:USF.COMPS:ANC:1,2008-04-01T04:06:00Z,28.1930,-82.7890,-0.234,1111122 
COMPS,ioos:station:USF.COMPS:ANC:1,2008-04-01T04:12:00Z,28.1930,-82.7890,-0.254,1111122 
COMPS,ioos:station:USF.COMPS:ANC:1,2008-04-01T04:18:00Z,28.1930,-82.7890,-0.27,1111122 
COMPS,ioos:station:USF.COMPS:ANC:1,2008-04-01T04:24:00Z,28.1930,-82.7890,-0.282,1111122 
COMPS,ioos:station:USF.COMPS:ANC:1,2008-04-01T04:30:00Z,28.1930,-82.7890,-0.302,1111122 
COMPS,ioos:station:USF.COMPS:ANC:1,2008-04-01T04:36:00Z,28.1930,-82.7890,-0.319,1111122 
COMPS,ioos:station:USF.COMPS:ANC:1,2008-04-01T04:42:00Z,28.1930,-82.7890,-0.331,1111122 
COMPS,ioos:station:USF.COMPS:ANC:1,2008-04-01T04:48:00Z,28.1930,-82.7890,-0.343,1111122 
COMPS,ioos:station:USF.COMPS:ANC:1,2008-04-01T04:54:00Z,28.1930,-82.7890,-0.355,1111122 
COMPS,ioos:station:USF.COMPS:ANC:1,2008-04-01T05:00:00Z,28.1930,-82.7890,-0.365,1111122 
COMPS,ioos:station:USF.COMPS:ANC:1,2008-04-01T05:06:00Z,28.1930,-82.7890,-0.372,1111122 
COMPS,ioos:station:USF.COMPS:ANC:1,2008-04-01T05:12:00Z,28.1930,-82.7890,-0.383,1111122 
COMPS,ioos:station:USF.COMPS:ANC:1,2008-04-01T05:18:00Z,28.1930,-82.7890,-0.403,1111122 
COMPS,ioos:station:USF.COMPS:ANC:1,2008-04-01T05:24:00Z,28.1930,-82.7890,-0.42,1111122 
COMPS,ioos:station:USF.COMPS:ANC:1,2008-04-01T05:30:00Z,28.1930,-82.7890,-0.43,1111122 
COMPS,ioos:station:USF.COMPS:ANC:1,2008-04-01T05:36:00Z,28.1930,-82.7890,-0.437,1111122 
COMPS,ioos:station:USF.COMPS:ANC:1,2008-04-01T05:42:00Z,28.1930,-82.7890,-0.444,1111122 
COMPS,ioos:station:USF.COMPS:ANC:1,2008-04-01T05:48:00Z,28.1930,-82.7890,-0.456,1111122 
COMPS,ioos:station:USF.COMPS:ANC:1,2008-04-01T05:54:00Z,28.1930,-82.7890,-0.472,1111122 
COMPS,ioos:station:USF.COMPS:ANC:1,2008-04-01T06:00:00Z,28.1930,-82.7890,-0.49,1111122 
COMPS,ioos:station:USF.COMPS:ANC:1,2008-04-01T06:06:00Z,28.1930,-82.7890,-0.51,1111122 
COMPS,ioos:station:USF.COMPS:ANC:1,2008-04-01T06:12:00Z,28.1930,-82.7890,-0.521,1111122 
COMPS,ioos:station:USF.COMPS:ANC:1,2008-04-01T06:18:00Z,28.1930,-82.7890,-0.528,1111122 
COMPS,ioos:station:USF.COMPS:ANC:1,2008-04-01T06:24:00Z,28.1930,-82.7890,-0.543,1111122 
COMPS,ioos:station:USF.COMPS:ANC:1,2008-04-01T06:30:00Z,28.1930,-82.7890,-0.557,1111122 
COMPS,ioos:station:USF.COMPS:ANC:1,2008-04-01T06:36:00Z,28.1930,-82.7890,-0.574,1111122 
COMPS,ioos:station:USF.COMPS:ANC:1,2008-04-01T06:42:00Z,28.1930,-82.7890,-0.597,1111122 
COMPS,ioos:station:USF.COMPS:ANC:1,2008-04-01T06:48:00Z,28.1930,-82.7890,-0.614,1111122 
COMPS,ioos:station:USF.COMPS:ANC:1,2008-04-01T06:54:00Z,28.1930,-82.7890,-0.62,1111122 
COMPS,ioos:station:USF.COMPS:ANC:1,2008-04-01T07:00:00Z,28.1930,-82.7890,-0.625,1111122 
COMPS,ioos:station:USF.COMPS:ANC:1,2008-04-01T07:06:00Z,28.1930,-82.7890,-0.632,1111122 
COMPS,ioos:station:USF.COMPS:ANC:1,2008-04-01T07:12:00Z,28.1930,-82.7890,-0.639,1111122 
COMPS,ioos:station:USF.COMPS:ANC:1,2008-04-01T07:18:00Z,28.1930,-82.7890,-0.641,1111122 
COMPS,ioos:station:USF.COMPS:ANC:1,2008-04-01T07:24:00Z,28.1930,-82.7890,-0.645,1111122 
COMPS,ioos:station:USF.COMPS:ANC:1,2008-04-01T07:30:00Z,28.1930,-82.7890,-0.653,1111122 
COMPS,ioos:station:USF.COMPS:ANC:1,2008-04-01T07:36:00Z,28.1930,-82.7890,-0.656,1111122 
COMPS,ioos:station:USF.COMPS:ANC:1,2008-04-01T07:42:00Z,28.1930,-82.7890,-0.655,1111122 
COMPS,ioos:station:USF.COMPS:ANC:1,2008-04-01T07:48:00Z,28.1930,-82.7890,-0.655,1111122 
COMPS,ioos:station:USF.COMPS:ANC:1,2008-04-01T07:54:00Z,28.1930,-82.7890,-0.655,1111122 
COMPS,ioos:station:USF.COMPS:ANC:1,2008-04-01T08:00:00Z,28.1930,-82.7890,-0.655,1111122 
COMPS,ioos:station:USF.COMPS:ANC:1,2008-04-01T08:06:00Z,28.1930,-82.7890,-0.655,1111122 
COMPS,ioos:station:USF.COMPS:ANC:1,2008-04-01T08:12:00Z,28.1930,-82.7890,-0.658,1111122 
COMPS,ioos:station:USF.COMPS:ANC:1,2008-04-01T08:18:00Z,28.1930,-82.7890,-0.66,1111122 
COMPS,ioos:station:USF.COMPS:ANC:1,2008-04-01T08:24:00Z,28.1930,-82.7890,-0.651,1111122 
COMPS,ioos:station:USF.COMPS:ANC:1,2008-04-01T08:30:00Z,28.1930,-82.7890,-0.631,1111122 
COMPS,ioos:station:USF.COMPS:ANC:1,2008-04-01T08:36:00Z,28.1930,-82.7890,-0.609,1111122 
COMPS,ioos:station:USF.COMPS:ANC:1,2008-04-01T08:42:00Z,28.1930,-82.7890,-0.59,1111122 
COMPS,ioos:station:USF.COMPS:ANC:1,2008-04-01T08:48:00Z,28.1930,-82.7890,-0.574,1111122 
COMPS,ioos:station:USF.COMPS:ANC:1,2008-04-01T08:54:00Z,28.1930,-82.7890,-0.567,1111122 
COMPS,ioos:station:USF.COMPS:ANC:1,2008-04-01T09:00:00Z,28.1930,-82.7890,-0.566,1111122 
COMPS,ioos:station:USF.COMPS:ANC:1,2008-04-01T09:06:00Z,28.1930,-82.7890,-0.558,1111122 
COMPS,ioos:station:USF.COMPS:ANC:1,2008-04-01T09:12:00Z,28.1930,-82.7890,-0.545,1111122 
COMPS,ioos:station:USF.COMPS:ANC:1,2008-04-01T09:18:00Z,28.1930,-82.7890,-0.536,1111122 
COMPS,ioos:station:USF.COMPS:ANC:1,2008-04-01T09:24:00Z,28.1930,-82.7890,-0.526,1111122 
COMPS,ioos:station:USF.COMPS:ANC:1,2008-04-01T09:30:00Z,28.1930,-82.7890,-0.508,1111122 
COMPS,ioos:station:USF.COMPS:ANC:1,2008-04-01T09:36:00Z,28.1930,-82.7890,-0.494,1111122 
COMPS,ioos:station:USF.COMPS:ANC:1,2008-04-01T09:42:00Z,28.1930,-82.7890,-0.484,1111122 
COMPS,ioos:station:USF.COMPS:ANC:1,2008-04-01T09:48:00Z,28.1930,-82.7890,-0.473,1111122 
COMPS,ioos:station:USF.COMPS:ANC:1,2008-04-01T09:54:00Z,28.1930,-82.7890,-0.457,1111122 
COMPS,ioos:station:USF.COMPS:ANC:1,2008-04-01T11:00:00Z,28.1930,-82.7890,-0.285,1111122 
COMPS,ioos:station:USF.COMPS:ANC:1,2008-04-01T11:06:00Z,28.1930,-82.7890,-0.265,1111122 
COMPS,ioos:station:USF.COMPS:ANC:1,2008-04-01T11:12:00Z,28.1930,-82.7890,-0.243,1111122 
COMPS,ioos:station:USF.COMPS:ANC:1,2008-04-01T11:18:00Z,28.1930,-82.7890,-0.227,1111122 
COMPS,ioos:station:USF.COMPS:ANC:1,2008-04-01T11:24:00Z,28.1930,-82.7890,-0.21,1111122 
COMPS,ioos:station:USF.COMPS:ANC:1,2008-04-01T11:30:00Z,28.1930,-82.7890,-0.19,1111122 
COMPS,ioos:station:USF.COMPS:ANC:1,2008-04-01T11:36:00Z,28.1930,-82.7890,-0.163,1111122 
COMPS,ioos:station:USF.COMPS:ANC:1,2008-04-01T11:42:00Z,28.1930,-82.7890,-0.141,1111122 
COMPS,ioos:station:USF.COMPS:ANC:1,2008-04-01T11:48:00Z,28.1930,-82.7890,-0.13,1111122 
COMPS,ioos:station:USF.COMPS:ANC:1,2008-04-01T11:54:00Z,28.1930,-82.7890,-0.12,1111122 
COMPS,ioos:station:USF.COMPS:ANC:1,2008-04-01T12:00:00Z,28.1930,-82.7890,-0.11,1111122 
COMPS,ioos:station:USF.COMPS:ANC:1,2008-04-01T12:06:00Z,28.1930,-82.7890,-0.097,1111122 
COMPS,ioos:station:USF.COMPS:ANC:1,2008-04-01T12:12:00Z,28.1930,-82.7890,-0.092,1111122 
COMPS,ioos:station:USF.COMPS:ANC:1,2008-04-01T12:18:00Z,28.1930,-82.7890,-0.09,1111122 
COMPS,ioos:station:USF.COMPS:ANC:1,2008-04-01T12:24:00Z,28.1930,-82.7890,-0.086,1111122 
COMPS,ioos:station:USF.COMPS:ANC:1,2008-04-01T12:30:00Z,28.1930,-82.7890,-0.08,1111122 
COMPS,ioos:station:USF.COMPS:ANC:1,2008-04-01T12:36:00Z,28.1930,-82.7890,-0.064,1111122 
COMPS,ioos:station:USF.COMPS:ANC:1,2008-04-01T12:42:00Z,28.1930,-82.7890,-0.058,1111122 
COMPS,ioos:station:USF.COMPS:ANC:1,2008-04-01T12:48:00Z,28.1930,-82.7890,-0.056,1111122 
COMPS,ioos:station:USF.COMPS:ANC:1,2008-04-01T12:54:00Z,28.1930,-82.7890,-0.04,1111122 
COMPS,ioos:station:USF.COMPS:ANC:1,2008-04-01T13:00:00Z,28.1930,-82.7890,-0.028,1111122 
COMPS,ioos:station:USF.COMPS:ANC:1,2008-04-01T13:06:00Z,28.1930,-82.7890,-0.022,1111122 
COMPS,ioos:station:USF.COMPS:ANC:1,2008-04-01T13:12:00Z,28.1930,-82.7890,-0.016,1111122 
COMPS,ioos:station:USF.COMPS:ANC:1,2008-04-01T13:18:00Z,28.1930,-82.7890,0.006,1111122 
COMPS,ioos:station:USF.COMPS:ANC:1,2008-04-01T13:24:00Z,28.1930,-82.7890,0.026,1111122 
COMPS,ioos:station:USF.COMPS:ANC:1,2008-04-01T13:30:00Z,28.1930,-82.7890,0.032,1111122 
COMPS,ioos:station:USF.COMPS:ANC:1,2008-04-01T13:36:00Z,28.1930,-82.7890,0.05,1111122 
COMPS,ioos:station:USF.COMPS:ANC:1,2008-04-01T13:42:00Z,28.1930,-82.7890,0.068,1111122 
COMPS,ioos:station:USF.COMPS:ANC:1,2008-04-01T13:48:00Z,28.1930,-82.7890,0.088,1111122 
COMPS,ioos:station:USF.COMPS:ANC:1,2008-04-01T13:54:00Z,28.1930,-82.7890,0.089,1111122 
COMPS,ioos:station:USF.COMPS:ANC:1,2008-04-01T14:00:00Z,28.1930,-82.7890,0.093,1111122 
COMPS,ioos:station:USF.COMPS:ANC:1,2008-04-01T14:06:00Z,28.1930,-82.7890,0.111,1111122 
COMPS,ioos:station:USF.COMPS:ANC:1,2008-04-01T14:12:00Z,28.1930,-82.7890,0.127,1111122 
COMPS,ioos:station:USF.COMPS:ANC:1,2008-04-01T14:18:00Z,28.1930,-82.7890,0.142,1111122 
COMPS,ioos:station:USF.COMPS:ANC:1,2008-04-01T14:24:00Z,28.1930,-82.7890,0.151,1111122 
COMPS,ioos:station:USF.COMPS:ANC:1,2008-04-01T14:30:00Z,28.1930,-82.7890,0.167,1111122 
COMPS,ioos:station:USF.COMPS:ANC:1,2008-04-01T14:36:00Z,28.1930,-82.7890,0.163,1111122 
COMPS,ioos:station:USF.COMPS:ANC:1,2008-04-01T14:42:00Z,28.1930,-82.7890,0.146,1111122 
COMPS,ioos:station:USF.COMPS:ANC:1,2008-04-01T14:48:00Z,28.1930,-82.7890,0.154,1111122 
COMPS,ioos:station:USF.COMPS:ANC:1,2008-04-01T14:54:00Z,28.1930,-82.7890,0.166,1111122 
COMPS,ioos:station:USF.COMPS:ANC:1,2008-04-01T15:00:00Z,28.1930,-82.7890,0.164,1111122 
COMPS,ioos:station:USF.COMPS:ANC:1,2008-04-01T15:06:00Z,28.1930,-82.7890,0.157,1111122 
COMPS,ioos:station:USF.COMPS:ANC:1,2008-04-01T15:12:00Z,28.1930,-82.7890,0.163,1111122 
COMPS,ioos:station:USF.COMPS:ANC:1,2008-04-01T15:18:00Z,28.1930,-82.7890,0.154,1111122 
COMPS,ioos:station:USF.COMPS:ANC:1,2008-04-01T15:24:00Z,28.1930,-82.7890,0.134,1111122 
COMPS,ioos:station:USF.COMPS:ANC:1,2008-04-01T15:30:00Z,28.1930,-82.7890,0.118,1111122 
COMPS,ioos:station:USF.COMPS:ANC:1,2008-04-01T15:36:00Z,28.1930,-82.7890,0.105,1111122 
COMPS,ioos:station:USF.COMPS:ANC:1,2008-04-01T15:42:00Z,28.1930,-82.7890,0.101,1111122 
COMPS,ioos:station:USF.COMPS:ANC:1,2008-04-01T15:48:00Z,28.1930,-82.7890,0.093,1111122 
COMPS,ioos:station:USF.COMPS:ANC:1,2008-04-01T15:54:00Z,28.1930,-82.7890,0.101,1111122 
COMPS,ioos:station:USF.COMPS:ANC:1,2008-04-01T16:00:00Z,28.1930,-82.7890,0.108,1111122 
COMPS,ioos:station:USF.COMPS:ANC:1,2008-04-01T16:06:00Z,28.1930,-82.7890,0.086,1111122 
COMPS,ioos:station:USF.COMPS:ANC:1,2008-04-01T16:12:00Z,28.1930,-82.7890,0.082,1111122 
COMPS,ioos:station:USF.COMPS:ANC:1,2008-04-01T16:18:00Z,28.1930,-82.7890,0.081,1111122 
COMPS,ioos:station:USF.COMPS:ANC:1,2008-04-01T16:24:00Z,28.1930,-82.7890,0.082,1111122 
COMPS,ioos:station:USF.COMPS:ANC:1,2008-04-01T16:30:00Z,28.1930,-82.7890,0.091,1111122 
COMPS,ioos:station:USF.COMPS:ANC:1,2008-04-01T16:36:00Z,28.1930,-82.7890,0.081,1111122 
COMPS,ioos:station:USF.COMPS:ANC:1,2008-04-01T16:42:00Z,28.1930,-82.7890,0.056,1111122 
COMPS,ioos:station:USF.COMPS:ANC:1,2008-04-01T16:48:00Z,28.1930,-82.7890,0.044,1111122 
COMPS,ioos:station:USF.COMPS:ANC:1,2008-04-01T16:54:00Z,28.1930,-82.7890,0.042,1111122 
COMPS,ioos:station:USF.COMPS:ANC:1,2008-04-01T17:00:00Z,28.1930,-82.7890,0.029,1111122 
COMPS,ioos:station:USF.COMPS:ANC:1,2008-04-01T17:06:00Z,28.1930,-82.7890,0.016,1111122 
COMPS,ioos:station:USF.COMPS:ANC:1,2008-04-01T17:12:00Z,28.1930,-82.7890,0.011,1111122 
COMPS,ioos:station:USF.COMPS:ANC:1,2008-04-01T17:18:00Z,28.1930,-82.7890,0.003,1111122 
COMPS,ioos:station:USF.COMPS:ANC:1,2008-04-01T17:24:00Z,28.1930,-82.7890,-0.02,1111122 
COMPS,ioos:station:USF.COMPS:ANC:1,2008-04-01T17:30:00Z,28.1930,-82.7890,-0.029,1111122 
COMPS,ioos:station:USF.COMPS:ANC:1,2008-04-01T17:36:00Z,28.1930,-82.7890,-0.039,1111122 
COMPS,ioos:station:USF.COMPS:ANC:1,2008-04-01T17:42:00Z,28.1930,-82.7890,-0.055,1111122 
COMPS,ioos:station:USF.COMPS:ANC:1,2008-04-01T17:48:00Z,28.1930,-82.7890,-0.072,1111122 
COMPS,ioos:station:USF.COMPS:ANC:1,2008-04-01T17:54:00Z,28.1930,-82.7890,-0.068,1111122 
COMPS,ioos:station:USF.COMPS:ANC:1,2008-04-01T18:00:00Z,28.1930,-82.7890,-0.084,1111122 
COMPS,ioos:station:USF.COMPS:ANC:1,2008-04-01T18:06:00Z,28.1930,-82.7890,-0.106,1111122 
COMPS,ioos:station:USF.COMPS:ANC:1,2008-04-01T18:12:00Z,28.1930,-82.7890,-0.113,1111122 
COMPS,ioos:station:USF.COMPS:ANC:1,2008-04-01T18:18:00Z,28.1930,-82.7890,-0.118,1111122 
COMPS,ioos:station:USF.COMPS:ANC:1,2008-04-01T18:24:00Z,28.1930,-82.7890,-0.121,1111122 
COMPS,ioos:station:USF.COMPS:ANC:1,2008-04-01T18:30:00Z,28.1930,-82.7890,-0.118,1111122 
COMPS,ioos:station:USF.COMPS:ANC:1,2008-04-01T18:36:00Z,28.1930,-82.7890,-0.121,1111122 
COMPS,ioos:station:USF.COMPS:ANC:1,2008-04-01T18:42:00Z,28.1930,-82.7890,-0.131,1111122 
COMPS,ioos:station:USF.COMPS:ANC:1,2008-04-01T18:48:00Z,28.1930,-82.7890,-0.137,1111122 
COMPS,ioos:station:USF.COMPS:ANC:1,2008-04-01T18:54:00Z,28.1930,-82.7890,-0.151,1111122 
COMPS,ioos:station:USF.COMPS:ANC:1,2008-04-01T19:00:00Z,28.1930,-82.7890,-0.164,1111122 
COMPS,ioos:station:USF.COMPS:ANC:1,2008-04-01T19:06:00Z,28.1930,-82.7890,-0.167,1111122 
COMPS,ioos:station:USF.COMPS:ANC:1,2008-04-01T19:12:00Z,28.1930,-82.7890,-0.177,1111122 
COMPS,ioos:station:USF.COMPS:ANC:1,2008-04-01T19:18:00Z,28.1930,-82.7890,-0.166,1111122 
COMPS,ioos:station:USF.COMPS:ANC:1,2008-04-01T19:24:00Z,28.1930,-82.7890,-0.169,1111122 
COMPS,ioos:station:USF.COMPS:ANC:1,2008-04-01T19:30:00Z,28.1930,-82.7890,-0.174,1111122 
COMPS,ioos:station:USF.COMPS:ANC:1,2008-04-01T19:36:00Z,28.1930,-82.7890,-0.177,1111122 
COMPS,ioos:station:USF.COMPS:ANC:1,2008-04-01T19:42:00Z,28.1930,-82.7890,-0.183,1111122 
COMPS,ioos:station:USF.COMPS:ANC:1,2008-04-01T19:48:00Z,28.1930,-82.7890,-0.186,1111122 
COMPS,ioos:station:USF.COMPS:ANC:1,2008-04-01T19:54:00Z,28.1930,-82.7890,-0.184,1111122 
COMPS,ioos:station:USF.COMPS:ANC:1,2008-04-01T22:00:00Z,28.1930,-82.7890,-0.081,1111122 
COMPS,ioos:station:USF.COMPS:ANC:1,2008-04-01T22:06:00Z,28.1930,-82.7890,-0.072,1111122 
COMPS,ioos:station:USF.COMPS:ANC:1,2008-04-01T22:12:00Z,28.1930,-82.7890,-0.063,1111122 
COMPS,ioos:station:USF.COMPS:ANC:1,2008-04-01T22:18:00Z,28.1930,-82.7890,-0.048,1111122 
COMPS,ioos:station:USF.COMPS:ANC:1,2008-04-01T22:24:00Z,28.1930,-82.7890,-0.027,1111122 
COMPS,ioos:station:USF.COMPS:ANC:1,2008-04-01T22:30:00Z,28.1930,-82.7890,-0.014,1111122 
COMPS,ioos:station:USF.COMPS:ANC:1,2008-04-01T22:36:00Z,28.1930,-82.7890,0.005,1111122 
COMPS,ioos:station:USF.COMPS:ANC:1,2008-04-01T22:42:00Z,28.1930,-82.7890,0.029,1111122 
COMPS,ioos:station:USF.COMPS:ANC:1,2008-04-01T22:48:00Z,28.1930,-82.7890,0.042,1111122 
COMPS,ioos:station:USF.COMPS:ANC:1,2008-04-01T22:54:00Z,28.1930,-82.7890,0.052,1111122 
COMPS,ioos:station:USF.COMPS:ANC:1,2008-04-01T23:00:00Z,28.1930,-82.7890,0.066,1111122 
COMPS,ioos:station:USF.COMPS:ANC:1,2008-04-01T23:06:00Z,28.1930,-82.7890,0.076,1111122 
COMPS,ioos:station:USF.COMPS:ANC:1,2008-04-01T23:12:00Z,28.1930,-82.7890,0.086,1111122 
COMPS,ioos:station:USF.COMPS:ANC:1,2008-04-01T23:18:00Z,28.1930,-82.7890,0.098,1111122 
COMPS,ioos:station:USF.COMPS:ANC:1,2008-04-01T23:24:00Z,28.1930,-82.7890,0.112,1111122 
COMPS,ioos:station:USF.COMPS:ANC:1,2008-04-01T23:30:00Z,28.1930,-82.7890,0.125,1111122 
COMPS,ioos:station:USF.COMPS:ANC:1,2008-04-01T23:36:00Z,28.1930,-82.7890,0.137,1111122 
COMPS,ioos:station:USF.COMPS:ANC:1,2008-04-01T23:42:00Z,28.1930,-82.7890,0.158,1111122 
COMPS,ioos:station:USF.COMPS:ANC:1,2008-04-01T23:48:00Z,28.1930,-82.7890,0.163,1111122 
COMPS,ioos:station:USF.COMPS:ANC:1,2008-04-01T23:54:00Z,28.1930,-82.7890,0.167,1111122 
COMPS,ioos:station:USF.COMPS:ANC:1,2008-04-02T00:00:00Z,28.1930,-82.7890,0.171,1111122 
COMPS,ioos:station:USF.COMPS:ANC:1,2008-04-02T00:06:00Z,28.1930,-82.7890,0.178,1111122 
COMPS,ioos:station:USF.COMPS:ANC:1,2008-04-02T00:12:00Z,28.1930,-82.7890,0.192,1111122 
COMPS,ioos:station:USF.COMPS:ANC:1,2008-04-02T00:18:00Z,28.1930,-82.7890,0.201,1111122 
COMPS,ioos:station:USF.COMPS:ANC:1,2008-04-02T00:24:00Z,28.1930,-82.7890,0.207,1111122 
COMPS,ioos:station:USF.COMPS:ANC:1,2008-04-02T00:30:00Z,28.1930,-82.7890,0.214,1111122 
COMPS,ioos:station:USF.COMPS:ANC:1,2008-04-02T00:36:00Z,28.1930,-82.7890,0.221,1111122 
COMPS,ioos:station:USF.COMPS:ANC:1,2008-04-02T00:42:00Z,28.1930,-82.7890,0.218,1111122 
COMPS,ioos:station:USF.COMPS:ANC:1,2008-04-02T00:48:00Z,28.1930,-82.7890,0.222,1111122 
COMPS,ioos:station:USF.COMPS:ANC:1,2008-04-02T00:54:00Z,28.1930,-82.7890,0.224,1111122 
COMPS,ioos:station:USF.COMPS:ANC:1,2008-04-02T01:00:00Z,28.1930,-82.7890,0.225,1111122 
COMPS,ioos:station:USF.COMPS:ANC:1,2008-04-02T01:06:00Z,28.1930,-82.7890,0.224,1111122 
COMPS,ioos:station:USF.COMPS:ANC:1,2008-04-02T01:12:00Z,28.1930,-82.7890,0.23,1111122 
COMPS,ioos:station:USF.COMPS:ANC:1,2008-04-02T01:18:00Z,28.1930,-82.7890,0.228,1111122 
COMPS,ioos:station:USF.COMPS:ANC:1,2008-04-02T01:24:00Z,28.1930,-82.7890,0.217,1111122 
COMPS,ioos:station:USF.COMPS:ANC:1,2008-04-02T01:30:00Z,28.1930,-82.7890,0.21,1111122 
COMPS,ioos:station:USF.COMPS:ANC:1,2008-04-02T01:36:00Z,28.1930,-82.7890,0.208,1111122 
COMPS,ioos:station:USF.COMPS:ANC:1,2008-04-02T01:42:00Z,28.1930,-82.7890,0.211,1111122 
COMPS,ioos:station:USF.COMPS:ANC:1,2008-04-02T01:48:00Z,28.1930,-82.7890,0.202,1111122 
COMPS,ioos:station:USF.COMPS:ANC:1,2008-04-02T01:54:00Z,28.1930,-82.7890,0.186,1111122 
COMPS,ioos:station:USF.COMPS:ANC:1,2008-04-02T03:00:00Z,28.1930,-82.7890,0.07,1111122 
COMPS,ioos:station:USF.COMPS:ANC:1,2008-04-02T03:06:00Z,28.1930,-82.7890,0.062,1111122 
COMPS,ioos:station:USF.COMPS:ANC:1,2008-04-02T03:12:00Z,28.1930,-82.7890,0.056,1111122 
COMPS,ioos:station:USF.COMPS:ANC:1,2008-04-02T03:18:00Z,28.1930,-82.7890,0.053,1111122 
COMPS,ioos:station:USF.COMPS:ANC:1,2008-04-02T03:24:00Z,28.1930,-82.7890,0.046,1111122 
COMPS,ioos:station:USF.COMPS:ANC:1,2008-04-02T03:30:00Z,28.1930,-82.7890,0.039,1111122 
COMPS,ioos:station:USF.COMPS:ANC:1,2008-04-02T03:36:00Z,28.1930,-82.7890,0.031,1111122 
COMPS,ioos:station:USF.COMPS:ANC:1,2008-04-02T03:42:00Z,28.1930,-82.7890,0.028,1111122 
COMPS,ioos:station:USF.COMPS:ANC:1,2008-04-02T03:48:00Z,28.1930,-82.7890,0.034,1111122 
COMPS,ioos:station:USF.COMPS:ANC:1,2008-04-02T03:54:00Z,28.1930,-82.7890,0.038,1111122 
COMPS,ioos:station:USF.COMPS:ANC:1,2008-04-02T04:00:00Z,28.1930,-82.7890,0.03,1111122 
COMPS,ioos:station:USF.COMPS:ANC:1,2008-04-02T04:06:00Z,28.1930,-82.7890,0.016,1111122 
COMPS,ioos:station:USF.COMPS:ANC:1,2008-04-02T04:12:00Z,28.1930,-82.7890,0.0,1114422 
COMPS,ioos:station:USF.COMPS:ANC:1,2008-04-02T04:18:00Z,28.1930,-82.7890,-0.004,1111122 
COMPS,ioos:station:USF.COMPS:ANC:1,2008-04-02T04:24:00Z,28.1930,-82.7890,-0.022,1111122 
COMPS,ioos:station:USF.COMPS:ANC:1,2008-04-02T04:30:00Z,28.1930,-82.7890,-0.018,1111122 
COMPS,ioos:station:USF.COMPS:ANC:1,2008-04-02T04:36:00Z,28.1930,-82.7890,-0.006,1111122 
COMPS,ioos:station:USF.COMPS:ANC:1,2008-04-02T04:42:00Z,28.1930,-82.7890,-0.027,1111122 
COMPS,ioos:station:USF.COMPS:ANC:1,2008-04-02T04:48:00Z,28.1930,-82.7890,-0.04,1111122 
COMPS,ioos:station:USF.COMPS:ANC:1,2008-04-02T04:54:00Z,28.1930,-82.7890,-0.059,1111122 
COMPS,ioos:station:USF.COMPS:ANC:1,2008-04-02T05:00:00Z,28.1930,-82.7890,-0.09,1111122 
COMPS,ioos:station:USF.COMPS:ANC:1,2008-04-02T05:06:00Z,28.1930,-82.7890,-0.11,1111122 
COMPS,ioos:station:USF.COMPS:ANC:1,2008-04-02T05:12:00Z,28.1930,-82.7890,-0.115,1111122 
COMPS,ioos:station:USF.COMPS:ANC:1,2008-04-02T05:18:00Z,28.1930,-82.7890,-0.132,1111122 
COMPS,ioos:station:USF.COMPS:ANC:1,2008-04-02T05:24:00Z,28.1930,-82.7890,-0.159,1111122 
COMPS,ioos:station:USF.COMPS:ANC:1,2008-04-02T05:30:00Z,28.1930,-82.7890,-0.188,1111122 
COMPS,ioos:station:USF.COMPS:ANC:1,2008-04-02T05:36:00Z,28.1930,-82.7890,-0.224,1111122 
COMPS,ioos:station:USF.COMPS:ANC:1,2008-04-02T05:42:00Z,28.1930,-82.7890,-0.262,1111122 
COMPS,ioos:station:USF.COMPS:ANC:1,2008-04-02T05:48:00Z,28.1930,-82.7890,-0.29,1111122 
COMPS,ioos:station:USF.COMPS:ANC:1,2008-04-02T05:54:00Z,28.1930,-82.7890,-0.31,1111122 
COMPS,ioos:station:USF.COMPS:ANC:1,2008-04-02T06:00:00Z,28.1930,-82.7890,-0.329,1111122 
COMPS,ioos:station:USF.COMPS:ANC:1,2008-04-02T06:06:00Z,28.1930,-82.7890,-0.343,1111122 
COMPS,ioos:station:USF.COMPS:ANC:1,2008-04-02T06:12:00Z,28.1930,-82.7890,-0.359,1111122 
COMPS,ioos:station:USF.COMPS:ANC:1,2008-04-02T06:18:00Z,28.1930,-82.7890,-0.384,1111122 
COMPS,ioos:station:USF.COMPS:ANC:1,2008-04-02T06:24:00Z,28.1930,-82.7890,-0.403,1111122 
COMPS,ioos:station:USF.COMPS:ANC:1,2008-04-02T06:30:00Z,28.1930,-82.7890,-0.42,1111122 
COMPS,ioos:station:USF.COMPS:ANC:1,2008-04-02T06:36:00Z,28.1930,-82.7890,-0.441,1111122 
COMPS,ioos:station:USF.COMPS:ANC:1,2008-04-02T06:42:00Z,28.1930,-82.7890,-0.465,1111122 
COMPS,ioos:station:USF.COMPS:ANC:1,2008-04-02T06:48:00Z,28.1930,-82.7890,-0.487,1111122 
COMPS,ioos:station:USF.COMPS:ANC:1,2008-04-02T06:54:00Z,28.1930,-82.7890,-0.504,1111122 